Weather History for Wink, TX

Change the Weather History Date:

Tuesday, July 16, 2013

  Actual Average Record
Temperature  
Mean Temperature 70 °F -  
Max Temperature 80 °F 96 °F 107 °F (1956)
Min Temperature 61 °F 70 °F 61 °F (2013)
Cooling Degree Days 6    
Growing Degree Days 20 (Base 50)    
Moisture  
Dew Point 60 °F    
Average Humidity 72    
Maximum Humidity 97    
Minimum Humidity 43    
Precipitation  
Precipitation 0.04 in - - ()
Sea Level Pressure  
Sea Level Pressure 30.03 in    
Wind  
Wind Speed 6 mph (ENE)    
Max Wind Speed 13 mph    
Max Gust Speed 22 mph    
Visibility 10 miles    
Events Rain    
Averages and records for this station are not official NWS values.
T = Trace of Precipitation, MM = Missing Value Source: NWS Daily Summary

Daily Weather History Graph

Daily Weather History Graph

Search for Another Location

Airport:

Trip Planner

Search our weather history database for the weather conditions in past years. The results will help you decide how hot, cold, wet, or windy it might be!

Date:

Astronomy

Jul. 16, 2013 Rise Set
Actual Time 6:58 AM CDT 8:58 PM CDT
Civil Twilight 6:31 AM CDT 9:26 PM CDT
Nautical Twilight 5:57 AM CDT 9:59 PM CDT
Astronomical Twilight 5:22 AM CDT 10:35 PM CDT
Moon 2:51 PM CDT (7/16) 1:19 AM CDT (7/16)
Length of Visible Light 14h 55m
Length of Day
14h 00m
First Quarter, 56% of the Moon is Illuminated
Jul 16
First Quarter
Jul 22
Full
Jul 29
Last Quarter
Aug 6
New
Aug 14
First Quarter

Hourly Weather History & Observations

Time (CDT) Temp. Heat Index Dew Point Humidity Pressure Visibility Wind Dir Wind Speed Gust Speed Precip Events Conditions
12:53 AM 64.0 °F - 61.0 °F 90% 30.03 in 10.0 mi West 3.5 mph - N/A   Scattered Clouds
1:53 AM 64.0 °F - 61.0 °F 90% 30.02 in 10.0 mi West 3.5 mph - N/A   Overcast
2:53 AM 63.0 °F - 60.1 °F 90% 30.03 in 10.0 mi NNW 3.5 mph - N/A   Clear
3:53 AM 62.1 °F - 60.1 °F 93% 30.02 in 10.0 mi Calm Calm - N/A   Partly Cloudy
4:53 AM 61.0 °F - 60.1 °F 97% 30.01 in 10.0 mi North 3.5 mph - N/A   Clear
5:53 AM 61.0 °F - 59.0 °F 93% 30.00 in 10.0 mi North 4.6 mph - N/A   Overcast
6:53 AM 61.0 °F - 60.1 °F 97% 30.01 in 10.0 mi North 5.8 mph - N/A   Overcast
7:53 AM 63.0 °F - 60.1 °F 90% 30.03 in 10.0 mi North 4.6 mph - N/A   Overcast
8:53 AM 66.0 °F - 60.1 °F 81% 30.04 in 10.0 mi North 8.1 mph - N/A   Partly Cloudy
9:53 AM 70.0 °F - 60.1 °F 71% 30.06 in 10.0 mi North 9.2 mph - N/A   Partly Cloudy
10:53 AM 73.0 °F - 57.9 °F 59% 30.05 in 10.0 mi ENE 9.2 mph - N/A   Unknown
11:53 AM 75.9 °F - 57.0 °F 52% 30.06 in 10.0 mi North - - N/A   Scattered Clouds
12:53 PM 77.0 °F - 55.9 °F 48% 30.04 in 10.0 mi East 8.1 mph - N/A   Mostly Cloudy
1:53 PM 80.1 °F 80.2 °F 55.9 °F 43% 30.02 in 10.0 mi ESE 11.5 mph 21.9 mph N/A   Scattered Clouds
2:53 PM 75.9 °F - 57.9 °F 54% 30.03 in 10.0 mi SE 12.7 mph - N/A   Overcast
3:53 PM 77.0 °F - 57.0 °F 50% 30.02 in 10.0 mi ESE 9.2 mph - N/A   Overcast
4:53 PM 78.1 °F - 57.0 °F 48% 30.01 in 10.0 mi East 8.1 mph - N/A   Overcast
5:53 PM 78.1 °F - 55.9 °F 46% 30.00 in 10.0 mi ESE 8.1 mph - N/A   Overcast
6:53 PM 78.1 °F - 57.0 °F 48% 30.00 in 10.0 mi East 9.2 mph - N/A   Overcast
7:53 PM 75.0 °F - 59.0 °F 57% 30.02 in 10.0 mi ESE 11.5 mph - N/A   Overcast
8:53 PM 73.0 °F - 61.0 °F 66% 30.04 in 10.0 mi SE 10.4 mph - N/A   Overcast
9:53 PM 69.1 °F - 66.0 °F 90% 30.06 in 10.0 mi ESE 6.9 mph - 0.00 in Rain Light Rain
10:53 PM 69.1 °F - 66.9 °F 93% 30.08 in 10.0 mi East 5.8 mph - 0.04 in   Overcast
11:53 PM 70.0 °F - 66.9 °F 90% 30.08 in 10.0 mi ESE 9.2 mph - N/A   Overcast